Lapse_Rate
6.4 6.5 6.5 6.5 6.5 6.5 6.5 6.5 6.5 6.5 6.5 6.5 6.5 6.5 6.5 5.5 5.3 4.7 3.5 2.8 2.6 2.5 2.9 2.4 2.0 1.6 0.9 0.1 0.3 0.7 0.8 0.8 0.5 0.3 0.6 0.8 1.5 1.6 1.4 2.0 2.6 2.3 2.1 2.1
6.5 6.5 6.5 6.5 6.5 6.5 6.5 6.5 6.5 6.5 6.5 6.5 6.5 6.5 6.5 6.2 5.8 4.2 3.4 2.6 2.0 2.6 2.8 2.4 1.6 0.5 0.0 0.9 0.6 0.4 1.1 1.1 1.0 0.5 0.5 0.7 0.9 1.2 1.3 2.0 2.1 2.3 2.2 1.9
6.5 6.5 6.5 6.5 6.5 6.5 6.5 6.5 6.5 6.5 6.5 6.5 6.5 6.5 6.5 6.4 5.2 4.3 3.4 2.9 2.4 1.7 1.7 1.9 1.2 -0.5 -0.5 -0.3 -0.4 0.8 1.1 1.2 1.1 0.9 0.5 0.7 0.9 1.2 1.4 1.4 1.3 1.8 1.9 1.4
6.5 6.5 6.5 6.5 6.5 6.5 6.5 6.5 6.5 6.5 6.5 6.5 6.5 6.5 6.5 6.5 6.5 6.2 4.1 2.7 2.2 1.8 1.4 1.0 0.8 -0.7 -1.2 -1.2 -0.5 0.4 1.1 1.1 1.0 0.5 0.8 1.3 1.5 1.9 1.6 1.5 1.0 0.9 1.5 1.2
6.5 6.5 6.5 6.5 6.5 6.5 6.5 6.5 6.5 6.5 6.5 6.5 6.5 6.5 6.5 6.5 6.5 6.5 5.2 2.8 1.9 1.7 1.1 0.3 -0.8 -0.3 -0.7 -0.4 -0.4 0.1 0.6 0.8 0.9 0.4 0.5 0.2 0.7 0.6 0.8 0.5 0.9 0.4 0.5 0.9
6.5 6.3 6.5 6.5 6.5 6.5 6.5 6.5 6.5 6.5 6.5 6.5 6.5 6.5 6.5 6.5 6.5 6.5 6.1 4.3 2.3 2.8 2.5 1.4 0.3 0.2 0.3 0.0 0.1 -0.3 0.0 0.4 0.4 0.2 0.1 0.1 0.2 0.6 0.3 0.3 0.0 -0.1 -0.4 -1.0
6.5 6.5 6.4 6.2 6.5 6.5 6.5 6.5 6.5 6.5 6.5 6.5 6.5 6.5 6.5 6.5 6.5 6.4 6.1 4.0 2.7 2.6 2.1 2.1 2.7 0.9 0.6 0.4 0.0 -0.2 -0.3 0.0 0.2 -0.2 -0.3 -0.3 -0.4 -0.4 -0.2 0.1 -0.2 -0.1 -0.8 -1.3
6.5 6.5 6.5 6.5 6.5 6.5 6.5 6.5 6.5 6.5 6.5 6.5 6.5 6.5 6.5 6.5 6.0 4.9 4.6 3.9 3.7 3.1 2.1 2.2 2.5 1.5 1.0 0.8 0.1 -0.5 -0.2 -0.3 0.1 -0.4 -0.5 -0.9 -1.0 -1.3 -1.0 -0.4 -0.6 -1.0 -1.1 -1.0
6.5 6.5 6.5 6.5 6.5 6.5 6.5 6.5 6.5 6.5 6.5 6.5 6.5 6.5 6.5 6.5 6.5 6.1 5.4 5.1 4.6 4.4 3.4 3.8 3.2 1.5 0.9 0.4 0.2 -0.0 0.1 0.0 0.2 0.1 -0.4 -0.9 -1.0 -0.9 -0.8 -0.5 -0.9 -1.1 -0.9 -0.1
6.5 6.5 6.5 6.5 6.4 6.3 6.5 6.5 6.5 6.5 6.5 6.5 6.5 6.5 6.5 6.5 6.5 6.5 6.3 5.3 4.9 4.6 4.2 3.2 2.5 1.7 1.0 0.3 -0.1 0.0 -0.2 0.1 0.5 0.3 -0.2 0.1 -0.4 -0.5 -0.4 -0.2 -0.4 -0.6 -0.6 -0.5
6.5 6.5 6.5 6.5 6.5 6.5 6.5 6.5 6.5 6.5 6.5 6.5 6.5 6.5 6.5 6.5 6.5 6.5 5.4 4.0 4.0 4.5 3.2 2.4 1.9 1.0 0.4 0.1 -0.3 -0.3 -0.2 0.1 0.3 0.3 0.5 0.1 -0.1 -0.1 -0.4 -0.8 -0.8 -0.7 -0.2 -0.4
6.5 6.5 6.5 6.5 6.5 6.5 6.5 6.5 6.5 6.5 6.5 6.5 6.5 6.5 6.5 6.5 5.9 4.7 4.2 4.0 4.2 2.6 1.9 1.8 1.2 0.6 0.5 0.3 0.2 0.2 0.1 0.1 0.3 0.3 0.3 -0.1 -0.1 -0.1 -0.4 -0.6 -0.2 -0.1 0.2 0.2
6.5 6.5 6.5 6.5 6.5 6.5 6.5 6.5 6.5 6.5 6.5 6.5 6.5 6.5 6.5 6.1 5.9 4.8 3.9 3.4 2.7 2.3 2.5 1.5 1.1 0.8 0.6 0.5 0.6 0.8 0.8 0.6 0.4 0.1 0.0 -0.1 -0.2 -0.4 -0.7 -0.7 -0.4 -0.4 -0.4 0.1
6.1 6.5 6.5 6.5 6.5 6.5 6.5 6.5 6.5 6.5 6.5 6.5 6.5 6.5 6.5 6.5 6.5 5.4 4.3 3.4 2.9 2.3 2.6 2.0 1.5 0.8 0.6 1.0 1.1 0.9 1.0 0.6 0.6 0.6 0.5 0.3 0.1 -0.2 -0.6 -0.7 -0.7 -0.6 -0.4 0.1
6.5 6.5 6.5 6.5 6.5 6.5 6.5 6.5 6.5 6.5 6.5 6.5 6.5 6.5 6.5 6.5 6.5 4.1 2.9 3.5 3.1 2.6 3.5 2.9 1.9 1.0 0.8 1.1 1.2 1.3 1.3 1.1 0.8 1.0 0.9 0.7 0.2 -0.0 -0.2 -0.3 -0.5 -0.8 -0.9 -0.3
6.5 6.5 6.5 6.5 6.5 6.5 6.5 6.5 6.5 6.5 6.5 6.5 6.5 6.5 6.5 4.0 3.8 4.0 3.1 3.6 3.8 3.5 4.1 3.3 2.8 2.5 2.1 1.5 1.4 1.4 1.1 0.8 0.3 0.2 0.2 -0.1 -0.1 -0.2 -0.1 -0.2 -0.2 -0.5 -0.8 -1.1
6.5 6.5 6.5 6.5 6.5 6.5 6.5 6.5 6.5 6.5 6.5 6.5 6.5 6.5 6.4 6.5 5.7 4.0 3.4 3.3 2.7 3.5 3.7 3.3 2.8 1.6 1.1 1.2 1.3 1.0 0.3 -0.1 -0.2 -0.1 0.0 -0.1 -0.3 -0.5 -0.5 -0.7 -0.8 -0.8 -0.9 -1.1
6.5 6.5 6.5 6.5 6.5 6.5 6.5 6.5 6.5 6.5 6.5 6.5 6.5 6.5 6.2 5.4 3.4 2.4 1.9 1.6 2.6 3.8 3.5 2.0 1.0 1.4 1.6 1.1 0.8 0.2 0.1 -0.2 -0.4 -0.3 -0.2 -0.2 -0.4 -0.7 -1.0 -1.4 -1.3 -1.3 -1.3 -1.0
6.3 6.5 6.5 6.5 6.5 6.5 6.5 6.5 6.5 6.5 6.5 6.5 6.5 6.5 5.1 3.0 4.2 5.0 3.5 3.5 2.8 1.9 1.5 1.5 1.4 1.3 0.8 0.5 0.0 -0.2 0.0 -0.3 -0.0 0.4 -0.0 -0.2 -0.5 -0.9 -0.9 -1.1 -1.3 -1.2 -1.2 -1.2
6.5 6.5 6.5 6.5 6.5 6.5 6.5 6.5 5.4 6.3 6.5 6.2 5.3 6.1 5.4 4.4 6.5 6.4 1.5 2.0 1.9 1.9 1.8 2.2 2.0 1.5 1.1 0.4 -0.5 -0.0 0.1 -0.6 -0.1 -0.2 -0.4 -0.4 -0.3 -0.4 -0.5 -0.7 -0.9 -1.0 -1.0 -0.7
6.5 6.5 6.5 6.5 6.5 6.5 6.5 6.2 4.9 6.5 6.5 5.9 3.7 3.4 3.9 6.3 3.8 1.2 1.5 2.5 3.1 3.2 3.7 2.4 1.5 1.3 0.7 -0.0 -0.3 0.0 -0.4 0.1 -0.1 -0.9 -1.1 -0.9 -0.7 -0.8 -0.8 -0.8 -1.1 -1.3 -1.5 -1.8
6.5 6.5 6.5 6.5 6.5 6.5 5.3 6.4 6.5 5.9 4.8 4.3 3.0 2.2 2.5 2.2 1.2 1.9 2.7 3.3 3.7 3.6 3.2 2.5 1.5 1.1 0.6 0.1 -0.4 0.1 0.0 -0.2 -1.3 -1.6 -1.6 -1.5 -1.5 -0.9 0.1 -1.1 -1.1 -1.3 -1.6 -1.3
6.5 6.5 6.5 6.5 6.5 5.4 4.0 5.7 4.2 2.1 3.0 4.3 3.1 2.7 1.9 1.5 2.4 2.4 2.8 3.2 3.0 3.0 2.1 1.4 0.6 0.1 0.3 0.2 -0.0 -0.2 0.6 -0.6 -1.3 -1.7 -1.5 -1.5 -1.7 -0.9 -0.8 -1.0 -0.3 -0.1 -0.2 -0.7
6.5 5.3 6.5 6.5 6.5 5.8 3.6 3.2 3.5 2.5 3.3 2.2 2.0 1.5 1.5 2.0 1.7 2.5 2.5 2.3 2.3 2.0 2.0 0.9 0.1 -0.1 -0.3 -0.5 -0.8 -0.8 -0.6 -0.9 -1.3 -1.1 -0.4 0.4 0.5 1.3 1.5 -0.1 -0.2 0.0 0.5 1.1
5.9 5.9 6.5 6.5 6.0 4.6 3.2 2.5 2.8 2.5 1.7 1.2 1.3 1.3 1.5 1.4 2.3 2.6 2.3 2.4 2.2 1.8 1.4 0.8 0.2 -0.3 -0.5 -1.0 -1.1 -0.9 -0.6 -0.7 -0.8 -0.5 0.3 0.9 1.4 1.4 1.7 1.6 1.6 1.7 1.7 2.5
4.8 6.5 6.5 6.5 4.9 5.2 4.6 2.7 1.6 1.2 1.3 1.0 1.2 1.7 2.5 2.8 2.4 2.8 2.2 2.0 1.7 1.6 1.0 0.5 0.3 -0.2 -0.4 -0.7 -0.7 -0.5 -0.3 -0.2 -0.1 0.7 1.8 2.0 2.9 2.6 2.6 2.6 2.7 4.0 4.6 5.3
Wind_Speed
7 2 5 8 5 7 7 6 7 2 1 4 2 1 6 6 4 7 8 8 8 9 4 5 6 6 6 5 6 6 5 3 1 1 1 0 2 1 1 2 3 5 6 6
5 3 3 7 7 8 5 7 3 3 1 2 4 1 2 6 6 7 8 8 10 5 5 6 7 7 7 6 7 5 5 4 2 1 1 1 1 1 1 1 2 2 3 5
5 1 5 4 3 7 3 8 5 6 3 3 5 4 4 5 4 5 7 6 6 9 8 7 9 8 7 8 7 6 6 5 3 3 1 1 1 1 1 1 2 1 1 3
7 4 4 4 4 4 4 5 5 11 5 3 3 3 5 5 6 6 8 8 8 8 6 7 8 8 9 8 5 6 6 6 4 4 2 4 3 3 3 2 2 2 2 1
2 3 3 2 4 3 3 6 5 4 5 5 2 4 6 1 5 6 7 8 7 7 6 8 9 9 6 7 7 6 6 5 4 5 4 4 4 3 2 2 3 2 2 2
2 2 3 1 2 2 7 8 8 5 4 2 1 4 4 4 3 2 1 1 6 3 2 2 3 5 4 5 5 6 7 6 5 5 5 6 7 5 3 3 3 3 2 3
3 3 4 3 6 4 4 7 3 4 3 5 4 2 7 2 1 4 5 5 6 5 3 3 3 3 5 6 7 6 7 7 7 7 6 7 7 7 7 6 4 4 3 3
4 3 4 6 1 6 2 5 5 6 4 3 3 5 4 2 2 4 4 5 5 5 3 4 4 3 4 6 7 7 7 7 7 7 8 7 7 4 4 5 4 4 4 4
5 4 3 1 2 2 4 1 3 7 3 4 2 6 5 3 2 3 4 4 4 4 3 3 2 3 5 6 7 7 7 8 7 8 7 7 6 7 6 7 5 4 4 4
4 5 2 3 0 4 2 6 4 3 4 3 4 5 5 6 7 5 4 5 4 3 3 1 1 3 3 5 6 6 7 8 7 7 6 6 7 7 6 5 7 7 6 6
3 3 4 2 3 3 2 2 5 4 3 4 3 6 5 8 8 8 7 6 5 4 3 3 3 4 4 4 4 5 6 7 7 6 5 6 7 7 6 6 7 7 7 7
1 4 3 1 0 1 1 2 4 4 3 2 2 4 3 5 8 7 7 5 4 6 5 3 4 4 5 5 6 5 5 4 6 6 6 7 6 6 6 7 8 7 9 7
3 2 3 4 2 2 3 3 3 4 2 4 4 4 2 3 5 5 7 6 4 5 5 4 5 4 4 5 6 6 6 5 4 3 4 5 6 6 7 7 7 7 8 9
2 3 4 6 3 3 3 3 4 4 3 4 5 3 5 6 7 6 6 5 5 5 4 2 3 4 4 4 5 6 6 6 6 5 5 5 5 6 6 6 7 7 7 9
3 2 2 1 1 1 2 4 6 7 3 5 3 8 9 11 10 8 7 5 6 5 3 1 2 3 4 5 6 5 5 6 5 5 5 6 6 6 6 6 6 6 6 7
4 2 1 0 2 3 3 5 7 5 3 6 3 6 7 6 5 6 7 6 5 5 3 1 2 4 4 4 5 4 5 5 4 5 6 6 6 6 6 6 7 6 6 7
2 3 3 2 4 5 7 8 10 6 6 7 7 9 6 5 7 7 7 7 7 6 2 1 1 3 4 4 5 6 6 5 6 5 6 6 6 6 6 6 7 7 7 5
4 4 2 2 2 1 5 2 3 6 4 9 2 4 6 5 5 6 5 7 6 3 3 4 4 3 4 3 4 5 5 5 6 6 6 6 6 6 7 7 7 6 5 6
2 4 3 3 3 6 1 4 6 6 7 13 11 6 6 6 4 1 3 4 6 6 4 3 3 2 3 4 5 5 6 6 6 6 6 6 6 7 7 8 8 6 6 6
4 5 3 2 2 5 3 2 4 3 5 4 9 9 10 7 4 4 9 6 5 4 3 2 2 2 2 4 4 5 5 6 6 6 7 6 6 6 7 7 8 5 4 8
2 2 4 2 2 8 5 3 5 2 5 3 7 7 7 6 4 3 6 3 2 2 1 2 3 2 3 4 4 6 6 7 6 6 6 6 6 7 7 6 4 5 6 6
6 6 4 2 2 6 5 4 6 4 0 3 4 6 6 4 6 5 5 5 4 4 3 3 3 4 5 4 4 5 6 7 6 6 7 7 7 6 6 7 7 7 6 7
3 6 4 8 6 4 6 3 1 4 4 3 5 3 6 7 5 6 5 5 3 3 1 1 2 4 5 5 4 5 6 7 7 7 8 7 7 7 7 6 8 6 6 5
4 4 3 1 2 7 7 3 2 4 4 4 4 5 5 5 7 5 4 3 2 0 1 2 4 5 6 5 4 6 7 7 6 7 9 10 9 12 10 5 5 6 6 7
4 5 4 5 7 5 7 5 5 3 4 5 5 4 6 8 5 5 4 3 2 1 2 2 4 5 7 7 6 5 6 5 6 6 7 8 7 8 9 8 8 8 8 9
5 7 5 5 4 2 3 3 7 8 7 7 7 6 4 5 7 5 4 2 1 2 3 4 5 6 7 7 8 7 7 6 6 7 6 7 8 8 8 9 10 14 19 21
Wind_Direction
328 341 180 162 150 149 125 117 110 355 314 100 115 161 192 187 200 211 214 214 220 221 223 179 182 179 169 182 178 179 173 190 140 134 138 331 252 278 322 354 28 33 33 32
326 251 225 120 118 120 106 118 86 49 26 69 142 266 202 197 218 207 207 221 227 208 179 187 194 186 189 191 196 191 203 189 191 152 182 173 203 252 236 260 7 25 44 43
274 187 121 107 112 109 111 143 173 149 168 58 119 330 224 230 230 220 222 221 223 219 215 203 205 197 187 211 198 203 210 205 202 181 147 108 62 19 342 276 279 255 79 62
261 320 131 108 115 112 125 150 129 130 99 170 31 248 256 228 249 225 234 213 224 226 227 216 203 193 200 212 198 218 216 210 210 183 178 203 207 215 226 214 219 212 191 140
285 11 89 107 175 163 127 120 118 98 91 95 342 71 266 40 246 250 243 225 217 230 224 230 212 206 197 178 201 214 219 218 221 202 198 203 231 236 256 241 239 229 242 240
18 307 57 22 71 80 154 88 52 55 80 40 228 130 272 192 196 193 310 119 179 168 156 211 208 159 193 192 205 212 214 228 225 216 218 216 228 239 239 237 247 250 251 251
25 2 342 25 78 48 87 83 28 21 18 207 321 101 240 255 221 201 165 141 145 147 113 84 130 187 207 203 214 215 214 239 230 226 229 225 228 227 231 235 230 233 239 238
114 349 7 338 64 168 134 124 149 165 172 211 354 231 254 228 69 80 122 142 137 141 148 190 208 206 217 223 224 220 222 239 231 228 234 229 231 225 228 230 227 236 231 238
132 348 307 311 335 76 194 72 161 110 36 74 231 282 305 190 140 108 127 135 159 169 174 200 235 236 251 252 244 228 232 246 241 234 237 238 235 232 232 236 231 240 245 247
178 83 352 303 2 36 106 150 72 8 125 202 300 280 235 211 199 177 174 186 182 164 134 77 18 331 314 289 275 254 235 239 243 238 234 240 237 236 240 244 244 236 244 237
139 97 293 28 28 175 50 57 54 114 116 152 150 256 211 204 184 182 195 203 197 168 132 99 43 13 351 343 343 293 269 258 258 247 250 246 246 239 238 235 240 235 239 232
339 115 111 160 214 118 96 136 137 116 216 66 142 271 335 205 184 168 187 203 137 137 134 88 40 20 17 2 357 357 343 289 269 251 241 245 252 243 243 244 245 238 241 234
189 61 84 4 14 9 223 198 126 108 86 192 135 262 20 111 159 192 168 173 155 143 120 67 40 19 1 355 359 357 354 346 336 317 288 287 277 265 257 254 250 238 239 244
134 95 144 176 197 136 188 188 162 137 118 169 221 202 240 215 198 190 182 163 156 147 124 91 24 358 347 343 342 343 343 350 350 2 354 328 313 290 275 270 262 254 243 251
82 109 109 131 66 185 216 200 186 191 188 164 233 197 219 206 199 199 180 169 142 153 132 64 1 340 335 340 343 349 351 348 345 341 334 325 317 312 305 300 293 281 265 256
5 130 133 270 12 32 274 234 211 216 214 261 183 252 221 182 133 154 174 166 168 185 208 339 348 356 344 330 318 311 312 321 327 332 329 328 337 331 324 318 314 303 289 279
83 117 71 270 348 336 297 220 189 188 206 155 196 222 163 156 176 175 175 184 182 196 211 335 307 259 262 272 300 322 327 329 347 342 336 338 334 327 322 315 312 306 299 288
122 102 78 204 6 353 239 156 197 198 221 211 233 196 184 159 137 146 169 170 181 181 197 222 234 283 301 317 324 323 339 347 349 346 339 333 327 314 309 315 312 304 292 292
48 120 93 130 200 285 240 196 156 167 269 203 199 165 141 120 96 259 172 155 186 203 212 231 242 255 322 339 337 342 348 350 342 331 321 314 316 316 317 310 303 296 291 298
61 72 116 139 200 231 246 200 177 145 285 201 159 164 151 142 159 240 188 192 207 211 218 246 341 358 1 337 344 352 338 333 332 325 315 310 303 292 294 290 294 283 276 289
83 30 165 157 256 287 239 167 147 149 253 154 154 155 140 174 191 156 145 174 178 187 114 52 37 346 315 331 350 352 340 331 306 303 298 293 287 282 277 284 276 278 286 284
169 150 193 115 208 294 162 90 169 223 268 157 142 161 166 123 133 140 153 147 131 83 50 36 8 344 332 341 355 335 325 304 311 312 304 299 297 297 293 277 285 288 283 284
224 187 182 187 214 238 217 214 221 170 160 173 127 110 136 140 164 153 148 130 98 83 69 20 6 328 323 332 336 313 294 312 317 319 312 306 302 303 293 290 298 302 292 279
238 168 225 29 228 236 245 230 211 189 159 135 126 136 145 138 147 145 131 119 124 171 8 350 349 340 319 311 283 249 286 297 306 313 320 319 316 313 308 291 277 271 276 281
204 141 195 261 275 294 264 219 189 145 110 112 117 137 146 141 153 146 146 156 179 329 337 343 328 313 307 312 299 250 271 296 311 303 295 292 290 289 295 286 280 279 266 263
189 191 171 227 227 161 235 246 167 154 166 164 140 130 136 139 147 138 159 177 151 341 334 332 319 308 302 304 311 317 311 310 301 303 297 288 295 292 291 294 297 283 282 284